Porterville, CA

5:19 PM PST on December 06, 2019 (GMT -0800)
Porterville Municipal

Weather History for KPTV - November, 2019

Change the Weather History Date:

Friday, November 15, 2019

  Actual Average Record
Temperature  
Mean Temperature 54 °F -  
Max Temperature 64 °F 66 °F 80 °F (1963)
Min Temperature 43 °F 40 °F 28 °F (1964)
Degree Days  
Heating Degree Days 12    
Growing Degree Days 4 (Base 50)    
Moisture  
Dew Point 46 °F    
Average Humidity 76    
Maximum Humidity 90    
Minimum Humidity 56    
Precipitation  
Precipitation 0.00 in - - ()
Sea Level Pressure  
Sea Level Pressure 30.17 in    
Wind  
Wind Speed 4 mph ()    
Max Wind Speed 8 mph    
Max Gust Speed -    
Visibility 6.5 miles    
Events      
Averages and records for this station are not official NWS values.
T = Trace of Precipitation, MM = Missing Value Source: Averaged Metar Reports

Daily Weather History Graph

Daily Weather History Graph

Search for Another Location

Airport or City:

Astronomy

Nov. 15, 2019 Rise Set
Actual Time 6:32 AM PST 4:48 PM PST
Civil Twilight 6:05 AM PST 5:15 PM PST
Nautical Twilight 5:34 AM PST 5:46 PM PST
Astronomical Twilight 5:03 AM PST 6:17 PM PST
Moon 7:31 PM PST (11/15) 9:30 AM PST (11/15)
Length of Visible Light 11h 10m
Length of Day
10h 15m
Waning Gibbous, 89% of the Moon is Illuminated
Nov 15
Waning Gibbous
Nov 19
Last Quarter
Nov 26
New
Dec 3
First Quarter
Dec 11
Full

Hourly Weather History & Observations

Time (PST) Temp. Windchill Dew Point Humidity Pressure Visibility Wind Dir Wind Speed Gust Speed Precip Events Conditions
12:56 AM 46.9 °F - 43.0 °F 86% 30.14 in 5.0 mi SE 6.9 mph - N/A   Clear
1:56 AM 46.0 °F 44.8 °F 43.0 °F 89% 30.15 in 5.0 mi SSW 3.5 mph - N/A   Clear
2:56 AM 45.0 °F 41.8 °F 42.1 °F 90% 30.15 in 5.0 mi SE 5.8 mph - N/A   Clear
3:56 AM 45.0 °F 43.5 °F 41.0 °F 86% 30.15 in 5.0 mi SW 3.5 mph - N/A   Clear
4:56 AM 45.0 °F 43.5 °F 41.0 °F 86% 30.15 in 4.0 mi ESE 3.5 mph - N/A   Clear
5:56 AM 46.0 °F 44.8 °F 42.1 °F 86% 30.19 in 5.0 mi SSE 3.5 mph - N/A   Clear
6:56 AM 43.0 °F 39.5 °F 39.9 °F 89% 30.21 in 3.0 mi ESE 5.8 mph - N/A   Clear
7:56 AM 46.0 °F 43.9 °F 43.0 °F 89% 30.22 in 4.0 mi SSW 4.6 mph - N/A   Clear
8:56 AM 55.0 °F - 46.9 °F 74% 30.21 in 10.0 mi SSE 8.1 mph - N/A   Clear
9:56 AM 59.0 °F - 48.9 °F 69% 30.22 in 10.0 mi SSW 8.1 mph - N/A   Clear
10:56 AM 62.1 °F - 48.9 °F 62% 30.21 in 10.0 mi SSW 6.9 mph - N/A   Clear
11:56 AM 64.0 °F - 48.9 °F 58% 30.18 in 10.0 mi South 6.9 mph - N/A   Clear
12:56 PM 64.0 °F - 48.9 °F 58% 30.14 in 9.0 mi Variable 3.5 mph - N/A   Clear
1:56 PM 64.0 °F - 48.9 °F 58% 30.13 in 8.0 mi WSW 5.8 mph - N/A   Clear
2:56 PM 64.0 °F - 48.9 °F 58% 30.13 in 8.0 mi Calm Calm - N/A   Clear
3:56 PM 64.9 °F - 48.9 °F 56% 30.13 in 7.0 mi Calm Calm - N/A   Clear
4:56 PM 64.9 °F - 48.9 °F 56% 30.14 in 7.0 mi NW 3.5 mph - N/A   Clear
5:56 PM 57.9 °F - 50.0 °F 75% 30.14 in 7.0 mi Calm Calm - N/A   Clear
6:56 PM 53.1 °F - 46.9 °F 80% 30.15 in 7.0 mi SSE 4.6 mph - N/A   Clear
7:56 PM 52.0 °F - 46.9 °F 83% 30.17 in 6.0 mi SE 3.5 mph - N/A   Haze
8:56 PM 50.0 °F - 46.0 °F 86% 30.17 in 6.0 mi ESE 6.9 mph - N/A   Clear
9:56 PM 50.0 °F - 46.0 °F 86% 30.17 in 5.0 mi ESE 4.6 mph - N/A   Clear
10:56 PM 46.9 °F - 43.0 °F 86% 30.17 in 5.0 mi South 3.5 mph - N/A   Clear
11:56 PM 46.0 °F 42.5 °F 43.0 °F 89% 30.16 in 5.0 mi SE 6.9 mph - N/A   Clear